Printer-friendly version

IAU Minor Planet Center

Minor Planet Center

MPEC 2001-P10: 2001 OF84

The following Minor Planet Electronic Circular may be linked-to from your own Web pages, but must not otherwise be redistributed electronically.


Read MPEC 2001-P09 Read MPEC 2001-P11


M.P.E.C. 2001-P10                                Issued 2001 Aug. 3, 15:33 UT

     The Minor Planet Electronic Circulars contain information on unusual
         minor planets and routine data on comets.  They are published
   on behalf of Commission 20 of the International Astronomical Union by the
          Minor Planet Center, Smithsonian Astrophysical Observatory,
                          Cambridge, MA 02138, U.S.A.

             Prepared using the Tamkin Foundation Computer Network

                              MPC@CFA.HARVARD.EDU
          URL http://cfa-www.harvard.edu/iau/mpc.html  ISSN 1523-6714

                                   2001 OF84

Observations:
     K01O84F* C2001 07 29.38938 01 37 33.91 +19 15 14.5          18.6 R      699
     K01O84F  C2001 07 29.40496 01 37 34.97 +19 15 58.3                      699
     K01O84F  C2001 07 29.42057 01 37 36.06 +19 16 43.9                      699
     K01O84F  C2001 07 29.43616 01 37 37.04 +19 17 28.5                      699
     K01O84F  C2001 07 30.37139 01 38 41.92 +20 02 05.9                      918
     K01O84F  C2001 07 30.37566 01 38 42.35 +20 02 19.1                      918
     K01O84F  C2001 07 30.97124 01 39 22.83 +20 30 41.0          17.7 R      046
     K01O84F  C2001 07 30.97365 01 39 23.01 +20 30 46.7                      046
     K01O84F  C2001 07 30.97466 01 39 23.09 +20 30 51.3                      046
     K01O84F  C2001 07 30.97564 01 39 23.16 +20 30 52.7          18.0 R      046
     K01O84F  C2001 07 30.97661 01 39 23.26 +20 30 55.6                      046
     K01O84F  C2001 07 30.97823 01 39 23.24 +20 31 02.3                      094
     K01O84F  C2001 07 30.98153 01 39 23.41 +20 31 10.5                      094
     K01O84F  C2001 07 30.98479 01 39 23.64 +20 31 20.6                      094
     K01O84F  C2001 07 31.03526 01 39 27.03 +20 33 44.5          18.4 V      151
     K01O84F  C2001 07 31.03881 01 39 27.34 +20 33 54.1          18.9 V      151
     K01O84F  C2001 07 31.04252 01 39 27.58 +20 34 04.8          18.7 V      151
     K01O84F  C2001 07 31.04494 01 39 27.75 +20 34 12.0          18.6 V      151
     K01O84F  C2001 07 31.36624 01 39 49.17 +20 49 32.4          18.2 R      649
     K01O84F  C2001 07 31.36853 01 39 49.36 +20 49 39.1          18.2 R      649
     K01O84F  C2001 07 31.37085 01 39 49.45 +20 49 45.7          18.1 R      649
     K01O84F 1C2001 07 31.42230 01 39 52.98 +20 52 10.6                      658
     K01O84F 1C2001 07 31.42427 01 39 53.07 +20 52 16.3                      658
     K01O84F 1C2001 07 31.42690 01 39 53.23 +20 52 23.2                      658
     K01O84F  C2001 08 01.00850 01 40 31.67 +21 20 03.8          17.7 R      046
     K01O84F  C2001 08 01.00988 01 40 31.73 +21 20 07.8                      046
     K01O84F  C2001 08 01.01117 01 40 31.82 +21 20 10.8                      046
     K01O84F  C2001 08 01.01238 01 40 31.94 +21 20 14.5          17.6 R      046
     K01O84F  C2001 08 01.01360 01 40 32.04 +21 20 18.5                      046
     K01O84F  C2001 08 01.38775 01 40 56.16 +21 38 08.2          19.1 R      649
     K01O84F  C2001 08 01.39193 01 40 56.44 +21 38 19.6          18.7 R      649
     K01O84F  C2001 08 01.39609 01 40 56.68 +21 38 31.6          18.6 R      649

Observer details:
046 Klet.  Observers M. Tichy, M. Kocer.  0.57-m f/5.2 reflector + CCD.
094 Crimea-Simeis.  Observers Yu. N. Krugly, N. M. Gaftonyuk.  1.0-m
    Ritchey-Chretien-Coude + CCD.
151 Eschenberg Observatory, Winterthur.  Observer M. Griesser.  0.40-m f/5.8
    Hypergraph.
649 Powell Observatory, Louisburg.  Observer K. Smalley.  0.75-m Newtonian
    + CCD.
658 National Research Council of Canada.  Observer D. D. Balam.  1.82-m
    Plaskett reflector + CCD.
699 Lowell Observatory-LONEOS.  Observers R. Cash, J. Ashley.  0.59-m
    LONEOS Schmidt + CCD.
918 Badlands Observatory, Quinn.  Observer R. Dyvig.  0.66-m f/4.8 reflector
    + CCD.

Orbital elements:
2001 OF84
Epoch 2001 July 30.0 TT = JDT 2452120.5                 Spahr
M   7.17753              (2000.0)            P               Q
n   0.24136110     Peri.  347.14035     +0.73449269     +0.64295243
a   2.5548056      Node   329.22330     -0.57899968     +0.42687900
e   0.5004987      Incl.   25.10501     -0.35394895     +0.63591390
P   4.08           H   16.9           G   0.15
From 32 observations 2001 July 29-Aug. 1.

Ephemeris:
2001 OF84                a,e,i = 2.55, 0.50, 25                  q = 1.2761
Date    TT    R. A. (2000) Decl.     Delta      r     Elong.  Phase     V
2001 07 30    01 38.27   +19 44.4    0.724    1.315    96.9    50.0    18.7
2001 08 09    01 48.13   +27 35.4    0.711    1.345   101.0    47.7    18.6
2001 08 19    01 53.97   +35 03.9    0.706    1.381   105.6    44.9    18.6
2001 08 29    01 54.49   +41 53.4    0.709    1.424   110.6    41.6    18.5
2001 09 08    01 48.40   +47 46.5    0.720    1.471   115.7    38.1    18.6
2001 09 18    01 34.79   +52 23.7    0.740    1.523   120.7    34.6    18.6
2001 09 28    01 14.53   +55 26.8    0.770    1.577   125.3    31.2    18.7
2001 10 08    00 51.18   +56 47.9    0.810    1.635   129.0    28.4    18.8
2001 10 18    00 29.79   +56 35.3    0.861    1.694   131.5    26.2    18.9
2001 10 28    00 14.56   +55 12.7    0.925    1.755   132.3    24.8    19.1
2001 11 07    00 06.92   +53 10.1    1.002    1.816   131.4    24.1    19.3
2001 11 17    00 06.26   +50 52.2    1.092    1.878   129.0    24.1    19.6
2001 11 27    00 11.26   +48 37.0    1.195    1.941   125.3    24.5    19.9
2001 12 07    00 20.49   +46 35.1    1.311    2.003   120.8    25.0    20.1
2001 12 17    00 32.80   +44 51.2    1.439    2.064   115.6    25.5    20.4
2001 12 27    00 47.37   +43 27.1    1.577    2.126   110.1    25.8    20.7
2002 01 06    01 03.54   +42 21.8    1.724    2.186   104.3    25.8    21.0
2002 01 16    01 20.88   +41 33.3    1.879    2.246    98.5    25.7    21.2
2002 01 26    01 39.10   +40 59.3    2.040    2.305    92.6    25.3    21.4
2002 02 05    01 57.93   +40 37.0    2.205    2.363    86.7    24.6    21.6

Timothy B. Spahr             (C) Copyright 2001 MPC           M.P.E.C. 2001-P10

Read MPEC 2001-P09 Read MPEC 2001-P11


Our Web policy. Index to the CBAT/MPC/ICQ pages.


Valid HTML 4.01!